Concordia, KS

4:01 PM CST on December 08, 2019 (GMT -0600)
Blosser Municipal

Weather History for KCNK - October, 2019

Change the Weather History Date:

Sunday, October 6, 2019

  Actual Average Record
Temperature  
Mean Temperature 58 °F 59 °F  
Max Temperature 69 °F 71 °F 94 °F (1963)
Min Temperature 47 °F 47 °F 26 °F (1952)
Degree Days  
Heating Degree Days 7 7  
Month to date heating degree days 38 39  
Since 1 July heating degree days 41 112  
Cooling Degree Days 0 1  
Month to date cooling degree days 6 10  
Year to date cooling degree days 1654 1336  
Growing Degree Days 8 (Base 50)    
Moisture  
Dew Point 42 °F    
Average Humidity 63    
Maximum Humidity 93    
Minimum Humidity 32    
Precipitation  
Precipitation 0.00 in 0.07 in 1.67 in (2017)
Month to date precipitation 1.01 0.46  
Year to date precipitation 32.03 24.47  
Snow  
Snow 0.00 in 0.00 in T in (1941)
Month to date snowfall 0.0 0.0  
Year to date snowfall 32.3 13.7  
Since 1 July snowfall 0.0 0.0  
Snow Depth 0.00 in    
Sea Level Pressure  
Sea Level Pressure 30.20 in    
Wind  
Wind Speed 6 mph (NW)    
Max Wind Speed 21 mph    
Max Gust Speed 29 mph    
Visibility 10 miles    
Events      
T = Trace of Precipitation, MM = Missing Value Source: NWS Daily Summary

Daily Weather History Graph

Daily Weather History Graph

Search for Another Location

Airport or City:

Astronomy

Oct. 06, 2019 Rise Set
Actual Time 7:31 AM CDT 7:05 PM CDT
Civil Twilight 7:04 AM CDT 7:32 PM CDT
Nautical Twilight 6:33 AM CDT 8:03 PM CDT
Astronomical Twilight 6:02 AM CDT 8:34 PM CDT
Moon 3:43 PM CDT (10/6) 12:32 AM CDT (10/6)
Length of Visible Light 12h 27m
Length of Day
11h 34m
First Quarter, 60% of the Moon is Illuminated
Oct 6
First Quarter
Oct 13
Full
Oct 21
Last Quarter
Oct 27
New
Nov 4
First Quarter

Hourly Weather History & Observations

Time (CDT) Temp. Dew Point Humidity Pressure Visibility Wind Dir Wind Speed Gust Speed Precip Events Conditions
12:55 AM 52.0 °F 42.1 °F 69% 30.06 in 10.0 mi Calm Calm - N/A   Clear
1:55 AM 46.9 °F 43.0 °F 86% 30.06 in 10.0 mi NW 5.8 mph - N/A   Clear
2:55 AM 48.0 °F 44.1 °F 86% 30.07 in 10.0 mi WNW 4.6 mph - N/A   Clear
3:55 AM 46.9 °F 44.1 °F 90% 30.06 in 10.0 mi NNW 6.9 mph - N/A   Clear
4:55 AM 52.0 °F 43.0 °F 71% 30.07 in 10.0 mi NE 4.6 mph - N/A   Overcast
5:55 AM 52.0 °F 45.0 °F 77% 30.11 in 10.0 mi Calm Calm - N/A   Clear
6:55 AM 52.0 °F 46.9 °F 83% 30.14 in 10.0 mi Calm Calm - N/A   Mostly Cloudy
7:55 AM 52.0 °F 46.9 °F 83% 30.16 in 10.0 mi Calm Calm - N/A   Overcast
8:55 AM 53.1 °F 46.9 °F 80% 30.20 in 10.0 mi West 3.5 mph - N/A   Overcast
9:55 AM 55.0 °F 48.0 °F 77% 30.23 in 10.0 mi NNW 4.6 mph - N/A   Scattered Clouds
10:55 AM 57.9 °F 48.9 °F 72% 30.25 in 10.0 mi North 5.8 mph - N/A   Clear
11:55 AM 64.9 °F 45.0 °F 48% 30.27 in 10.0 mi North 6.9 mph - N/A   Clear
12:55 PM 66.9 °F 39.0 °F 36% 30.27 in 10.0 mi North 9.2 mph - N/A   Mostly Cloudy
1:55 PM 66.9 °F 36.0 °F 32% 30.27 in 10.0 mi North 12.7 mph - N/A   Scattered Clouds
2:55 PM 66.0 °F 43.0 °F 43% 30.26 in 10.0 mi NNW 10.4 mph 17.3 mph N/A   Scattered Clouds
3:55 PM 66.9 °F 42.1 °F 40% 30.25 in 10.0 mi NW 11.5 mph - N/A   Scattered Clouds
4:55 PM 66.0 °F 41.0 °F 40% 30.23 in 10.0 mi WNW 10.4 mph - N/A   Overcast
5:55 PM 68.0 °F 37.0 °F 32% 30.22 in 10.0 mi NW 12.7 mph 21.9 mph N/A   Clear
6:55 PM 62.1 °F 37.9 °F 41% 30.23 in 10.0 mi WNW 6.9 mph - N/A   Clear
7:55 PM 57.0 °F 39.9 °F 53% 30.24 in 10.0 mi West 4.6 mph - N/A   Clear
8:55 PM 54.0 °F 39.9 °F 59% 30.26 in 10.0 mi WSW 4.6 mph - N/A   Clear
9:55 PM 55.0 °F 39.0 °F 55% 30.27 in 10.0 mi WSW 4.6 mph - N/A   Clear
10:55 PM 52.0 °F 39.9 °F 63% 30.30 in 10.0 mi WSW 6.9 mph - N/A   Clear
11:55 PM 53.1 °F 39.0 °F 59% 30.30 in 10.0 mi WSW 4.6 mph - N/A   Clear